Temperature
14 14 14 14 14 15 15 15 15 16 16 16 16 16 16 16 16 17 17 17 18 18 18 17 18 18 18 18 18 18 18 18 18 18 18 18 18 18 18 18 18 18 18
14 14 14 14 14 14 14 15 15 15 15 16 16 16 16 16 16 17 17 17 17 18 17 17 17 18 18 18 18 18 18 18 18 18 18 18 18 18 18 18 18 18 17
13 13 14 14 14 14 14 14 15 15 15 15 16 16 16 16 16 16 17 17 17 17 17 17 17 17 18 18 18 18 18 18 18 18 18 18 18 17 17 17 18 18 17
13 13 13 13 13 14 14 14 14 15 15 15 15 16 16 16 16 16 16 17 17 17 17 17 17 17 17 18 18 18 18 18 18 17 18 17 17 17 17 17 17 17 17
13 13 13 13 13 13 14 14 14 14 15 15 15 15 16 16 16 16 16 17 17 17 17 17 17 17 17 17 18 18 17 17 17 17 17 17 17 17 17 17 17 17 17
12 13 13 13 13 13 13 13 14 14 14 14 15 15 15 16 16 16 16 16 17 17 17 17 17 17 17 17 17 17 17 17 17 17 17 17 17 17 17 17 17 17 17
12 12 12 12 12 13 13 13 13 14 14 14 15 15 15 15 16 16 16 16 16 17 17 17 17 17 17 17 17 17 17 17 17 17 17 17 17 17 17 17 17 17 17
12 12 12 12 12 12 12 13 13 13 14 14 14 15 16 16 15 16 16 16 16 16 16 17 17 17 17 17 17 17 17 17 17 17 17 17 17 17 17 17 17 17 17
12 12 12 12 12 12 12 12 13 13 13 14 14 14 15 16 16 15 16 16 16 16 16 16 17 17 17 17 17 17 17 17 17 17 17 17 17 17 17 17 17 17 17
11 11 11 11 12 12 12 12 12 13 13 13 14 14 14 14 15 15 15 16 16 16 16 16 16 16 17 17 17 17 17 17 17 17 17 17 17 17 17 17 17 17 17
11 11 11 11 12 12 12 12 12 12 13 13 13 13 14 14 14 15 15 15 15 15 16 16 16 16 16 16 17 17 17 17 17 17 17 17 17 17 17 17 17 17 17
11 11 11 11 11 12 12 12 12 12 12 12 13 13 13 14 14 14 15 15 15 15 15 15 16 16 16 16 16 17 17 17 17 17 17 17 17 17 17 17 17 17 17
12 11 11 11 11 11 11 11 12 12 12 12 12 13 13 13 13 14 14 14 14 15 15 15 15 15 16 16 16 16 17 17 17 17 17 17 17 17 17 17 17 17 17
12 11 11 11 11 11 11 11 12 12 12 12 12 12 12 13 13 13 13 14 14 15 15 15 15 15 15 15 15 16 16 17 17 17 17 17 17 17 17 17 17 17 17
11 11 11 11 11 11 11 11 12 12 12 12 12 12 12 12 12 13 13 13 13 14 15 15 14 15 15 15 15 16 16 16 16 17 17 17 17 17 17 17 17 17 17
12 11 11 11 11 11 11 11 11 11 11 11 12 12 12 12 12 12 12 13 13 13 14 14 14 14 14 14 15 15 15 16 16 16 16 17 17 17 17 17 17 16 16
12 12 11 11 11 11 11 11 11 11 11 11 11 11 12 12 12 12 12 12 12 12 13 13 13 13 13 14 14 15 15 15 15 16 16 16 16 16 16 16 16 16 16
12 12 12 12 12 11 11 11 11 11 11 11 11 11 11 11 11 12 12 12 12 12 12 13 13 13 13 13 13 14 14 15 15 15 16 16 16 16 16 16 16 16 16
12 12 12 12 12 12 12 11 11 11 11 11 11 11 11 11 11 12 12 12 12 12 12 12 12 12 13 13 13 13 14 14 14 15 15 15 16 16 16 16 16 16 16
13 13 13 12 12 12 12 12 12 11 11 11 11 11 11 11 11 11 11 11 11 11 12 12 12 12 12 12 13 13 13 13 14 14 14 15 15 15 15 16 16 16 16
13 13 13 13 13 12 12 12 12 12 12 12 11 11 11 12 12 12 11 11 11 11 11 11 12 12 12 12 12 13 13 13 13 13 14 14 14 14 15 15 15 16 16
14 13 13 13 13 13 13 13 12 12 12 12 12 11 11 11 12 12 12 12 12 11 11 11 11 12 12 12 12 12 12 13 13 13 13 14 14 14 14 15 15 15 15
14 14 14 13 13 13 13 13 13 12 12 12 12 12 11 11 12 11 11 12 11 12 12 11 11 11 11 12 12 12 12 12 12 13 13 13 13 14 14 14 15 15 15
14 14 14 14 14 14 13 13 13 13 12 12 12 12 12 11 11 11 11 11 11 11 11 11 11 11 11 11 11 12 12 12 12 12 12 12 13 13 14 14 14 15 15
15 14 14 14 14 14 14 13 13 13 12 12 12 12 12 12 12 12 11 11 11 11 11 11 12 12 12 12 12 11 11 11 12 12 12 12 13 13 13 13 14 14 14
15 14 14 14 14 14 14 14 13 13 13 13 12 12 12 12 12 12 12 11 11 11 11 11 11 11 11 12 12 11 11 11 11 11 12 12 12 12 12 13 13 13 13
Wind_Speed
5 5 5 4 5 4 4 4 4 5 6 7 7 7 7 9 8 8 5 5 6 6 7 7 7 7 8 8 8 9 9 9 9 10 10 10 11 11 11 11 11 11 11
5 5 5 4 5 4 4 4 4 4 4 4 6 6 7 7 8 8 7 6 8 7 7 7 7 8 9 9 9 9 10 10 10 10 10 11 11 11 11 12 11 11 10
6 5 5 5 5 5 5 4 4 4 4 4 6 6 6 6 7 7 7 6 7 9 8 8 9 9 9 10 10 10 10 10 11 11 11 11 11 11 12 12 11 11 11
6 5 5 5 5 5 4 4 4 4 4 4 4 5 5 5 7 7 7 7 6 6 8 10 9 10 10 10 11 11 11 12 12 12 12 12 12 13 12 12 12 11 11
7 6 5 5 5 4 4 4 3 4 4 4 5 5 5 5 5 6 7 7 6 6 6 9 11 10 9 10 11 11 12 12 13 13 13 13 13 13 13 13 12 11 11
7 6 5 5 6 4 4 3 3 3 3 4 5 5 4 4 4 5 6 6 6 7 7 7 8 11 11 10 11 11 12 12 13 14 14 15 15 14 14 13 12 12 12
6 6 5 5 5 4 5 5 4 4 3 3 3 4 4 5 4 4 5 5 6 5 6 7 8 7 9 12 12 12 12 12 13 14 15 15 15 15 15 14 14 13 13
6 5 6 5 5 4 5 5 4 3 2 2 3 3 3 4 3 4 4 4 5 4 5 7 7 7 7 8 11 14 13 13 14 15 16 17 17 17 16 15 15 14 14
5 6 6 6 5 5 4 5 4 3 3 2 2 2 2 2 2 3 3 4 4 3 4 5 6 7 8 7 8 13 14 13 14 15 16 17 18 17 17 17 16 15 15
4 5 5 5 5 4 4 4 4 4 3 2 2 2 3 2 2 2 2 2 3 3 3 4 5 5 7 7 7 8 13 14 14 15 16 17 18 18 18 18 18 17 16
4 4 5 5 5 4 4 5 5 4 3 3 2 2 2 2 3 2 2 1 1 3 2 3 4 4 6 7 6 7 11 14 14 15 16 17 18 19 19 19 19 19 18
3 4 4 4 4 4 4 4 4 4 3 3 3 2 2 2 2 2 3 3 2 1 2 3 4 4 4 6 7 5 9 12 14 15 15 16 17 19 20 20 20 20 19
3 4 4 5 5 5 4 4 4 4 3 3 3 3 3 3 2 3 3 3 3 2 2 3 4 4 4 5 5 4 8 10 13 14 15 16 16 17 19 20 21 21 21
4 4 5 5 4 5 4 3 4 3 3 3 3 3 3 3 3 3 3 3 3 3 3 3 2 3 3 4 3 5 7 10 10 13 14 15 17 17 18 20 21 21 21
3 4 4 4 4 4 4 4 3 3 3 3 3 3 3 3 3 3 3 4 4 4 4 3 2 2 2 3 3 6 7 7 9 11 13 14 16 17 18 19 20 21 22
3 4 4 4 3 3 3 3 3 3 4 3 3 4 4 3 3 3 3 4 4 5 5 3 2 3 3 4 4 7 7 6 10 12 13 14 15 17 18 19 20 20 21
3 4 3 4 4 3 3 3 4 3 4 4 3 3 3 4 4 3 4 4 4 5 7 6 4 4 5 5 4 5 7 8 9 12 13 14 15 16 17 18 19 20 21
3 4 3 3 3 3 3 4 3 4 4 4 4 4 4 3 4 4 4 5 5 5 6 7 6 6 6 6 6 6 6 7 8 8 11 13 14 15 17 18 18 20 21
4 3 3 3 3 3 4 4 4 4 4 4 4 4 4 4 4 4 4 5 5 5 6 6 7 6 6 6 6 6 7 6 7 8 10 13 14 15 16 17 18 19 20
4 4 4 4 4 4 4 4 4 4 4 3 3 4 4 4 5 5 4 5 5 5 5 6 6 6 6 6 6 6 6 6 6 6 7 9 10 14 16 17 18 19 20
5 5 5 5 4 4 4 5 5 5 5 4 4 4 3 3 5 5 5 5 5 5 5 5 6 6 6 5 5 5 6 6 7 6 6 7 7 8 11 15 18 19 19
6 6 6 6 6 5 2 5 7 6 6 5 5 4 4 4 5 6 6 7 7 7 7 6 6 7 7 6 6 6 6 6 6 4 5 7 7 8 8 10 12 15 18
7 7 7 7 8 6 4 6 8 8 7 6 6 5 4 4 4 5 5 8 9 9 9 9 9 9 8 7 7 8 7 8 8 6 6 8 7 9 8 10 12 14 16
7 7 7 8 8 7 5 7 8 9 8 7 7 6 6 6 4 5 6 6 6 6 6 8 8 8 8 7 7 8 8 8 9 8 6 7 8 8 8 8 11 15 16
7 7 7 7 8 7 6 7 8 8 8 8 7 6 6 6 1 3 7 7 7 6 5 8 8 10 10 10 9 7 7 7 8 7 6 6 7 7 8 8 8 14 16
6 6 6 7 7 8 3 5 8 7 8 7 6 6 4 6 3 3 6 7 7 6 6 6 7 9 9 9 10 9 8 7 7 6 5 6 7 5 6 6 6 7 10
Wind_Direction
313 310 299 298 288 287 270 266 259 249 244 234 233 230 233 235 238 240 235 199 240 250 247 230 220 216 211 208 209 201 193 189 181 176 171 169 166 162 155 152 150 148 145
324 313 304 300 299 294 290 276 266 256 247 238 233 227 234 239 239 238 243 219 212 226 236 226 219 221 210 205 207 202 193 188 183 178 175 172 169 168 164 160 158 157 154
329 320 313 310 310 301 288 276 270 263 248 238 237 232 232 239 239 238 239 238 218 203 214 218 214 221 212 205 205 203 194 189 187 184 181 179 177 172 168 166 165 162 159
338 331 323 321 316 305 294 282 274 263 257 250 245 240 235 234 239 241 241 231 228 224 200 201 208 214 213 208 206 205 198 194 192 191 185 182 179 176 172 171 171 169 164
341 337 336 329 324 313 302 295 288 278 269 262 254 241 241 238 246 246 242 237 226 226 220 185 198 207 211 211 210 207 202 199 198 196 188 184 181 179 178 177 176 176 173
346 340 332 336 335 323 317 311 299 282 278 269 260 253 242 237 238 248 251 241 235 229 228 211 199 201 203 209 210 210 208 205 203 200 193 189 186 184 184 184 185 185 181
346 344 337 344 339 337 330 322 311 290 280 275 258 248 236 233 236 235 244 247 234 229 228 219 216 210 197 200 207 208 211 210 208 205 198 195 192 190 191 191 192 191 190
347 342 345 339 345 337 335 335 326 306 291 272 270 259 239 208 217 224 226 234 240 222 232 229 220 216 217 201 196 200 208 209 211 211 204 201 197 196 196 198 198 197 196
345 342 344 340 342 336 343 341 335 323 304 287 279 272 262 245 200 194 219 225 232 235 235 240 234 224 218 215 199 197 202 207 212 217 212 207 203 201 202 203 205 204 202
346 342 341 341 342 344 343 338 350 331 311 303 294 288 290 312 279 218 187 206 217 225 234 237 242 238 225 221 207 196 197 208 214 220 218 213 209 207 207 207 209 209 208
351 351 346 344 344 343 346 344 340 336 323 312 308 298 285 275 266 274 243 211 215 222 232 235 244 248 239 230 218 208 197 209 216 222 222 218 215 213 211 211 212 212 211
347 1 347 342 342 344 342 338 331 334 335 326 310 297 293 283 272 266 264 259 260 240 239 229 234 241 243 241 229 204 203 215 220 225 225 223 221 219 216 215 215 215 215
346 354 342 334 339 339 337 332 324 331 329 325 313 309 302 293 298 286 275 268 267 262 244 231 220 228 236 249 239 206 213 218 223 227 227 226 226 224 222 220 219 219 218
337 337 331 331 334 332 327 332 321 328 327 321 318 315 301 294 293 283 282 283 272 254 241 235 228 231 232 246 256 235 230 210 221 228 228 229 228 226 226 225 224 223 222
319 319 319 323 329 331 331 327 326 329 324 314 315 307 301 303 292 287 279 273 275 269 258 232 226 222 246 257 243 250 249 209 221 231 232 232 231 228 228 228 228 227 224
304 302 310 315 321 323 319 318 316 330 314 314 306 302 304 301 302 289 278 272 268 274 269 261 253 259 267 268 245 260 256 231 232 233 233 235 233 232 230 230 229 228 226
282 290 303 307 316 321 317 316 312 313 307 310 300 297 297 305 295 287 279 270 265 263 266 270 267 269 266 268 264 265 261 249 240 221 227 233 235 235 234 233 230 227 226
279 286 295 297 305 310 312 315 315 309 308 311 309 300 295 292 290 286 281 275 271 266 267 274 275 274 274 275 275 269 263 252 252 225 222 232 235 236 235 234 232 229 227
268 269 281 288 293 294 299 300 301 305 308 308 306 300 298 294 286 282 277 277 277 272 267 270 276 279 274 271 274 268 260 255 255 239 226 228 231 235 237 237 235 233 230
260 267 270 275 282 284 283 287 290 294 297 296 295 293 294 291 292 293 282 280 280 277 271 268 272 276 273 274 271 269 267 256 255 252 242 238 234 234 236 235 235 233 231
257 264 268 270 271 274 278 286 286 283 286 288 286 287 293 301 312 300 296 294 287 278 275 274 276 281 277 276 275 275 272 274 265 253 254 249 241 242 236 230 230 231 229
255 259 262 266 268 266 260 260 276 279 277 276 282 285 279 256 252 251 265 283 289 283 282 277 277 275 280 279 278 274 273 274 272 253 259 262 250 249 245 242 229 221 224
249 256 259 262 264 258 219 241 250 269 273 276 279 280 277 274 269 279 255 242 250 241 252 273 276 277 281 283 282 278 272 271 269 275 277 271 261 255 251 244 223 222 225
253 256 262 263 265 262 227 243 246 254 263 266 265 268 270 275 274 290 288 283 281 268 254 255 270 281 285 287 280 278 282 281 278 268 255 264 268 265 263 253 223 219 226
256 259 263 266 267 261 216 234 250 257 258 259 258 259 265 271 249 277 278 282 286 284 246 239 264 276 286 279 274 271 267 266 273 272 253 255 270 272 269 261 238 217 225
257 266 267 268 270 275 235 231 251 257 259 261 257 251 230 260 299 262 273 281 285 294 299 285 264 257 264 257 240 248 257 261 268 274 255 249 266 271 273 260 253 244 235
Height
1516 1515 1514 1513 1513 1512 1512 1511 1512 1512 1512 1513 1514 1516 1517 1518 1520 1522 1523 1522 1524 1525 1526 1527 1529 1530 1531 1532 1533 1535 1536 1538 1540 1541 1543 1544 1546 1547 1549 1550 1551 1552 1553
1514 1513 1513 1512 1511 1510 1510 1509 1509 1509 1510 1510 1511 1512 1514 1516 1517 1518 1520 1521 1521 1523 1524 1526 1527 1528 1529 1531 1532 1534 1535 1537 1539 1541 1542 1544 1546 1547 1549 1550 1551 1553 1554
1513 1512 1511 1510 1509 1508 1508 1507 1507 1507 1507 1508 1508 1509 1511 1512 1514 1516 1518 1519 1520 1521 1522 1524 1525 1526 1528 1529 1531 1532 1534 1536 1538 1540 1542 1544 1545 1547 1548 1550 1551 1553 1554
1512 1511 1510 1509 1507 1506 1506 1505 1505 1505 1505 1506 1506 1507 1508 1510 1511 1513 1515 1516 1518 1520 1521 1522 1523 1524 1526 1528 1529 1531 1533 1535 1537 1539 1541 1543 1544 1546 1548 1549 1551 1552 1554
1511 1510 1508 1507 1506 1505 1504 1504 1504 1504 1504 1504 1504 1505 1506 1507 1508 1510 1512 1514 1516 1517 1519 1520 1521 1523 1525 1526 1528 1529 1531 1534 1536 1538 1540 1542 1544 1545 1547 1549 1550 1552 1553
1510 1509 1508 1506 1505 1504 1503 1502 1502 1502 1502 1502 1503 1503 1504 1505 1506 1507 1509 1511 1513 1514 1517 1518 1519 1521 1522 1524 1526 1528 1530 1532 1534 1536 1538 1540 1542 1544 1546 1548 1549 1551 1553
1510 1509 1507 1506 1504 1503 1502 1502 1501 1501 1501 1501 1501 1502 1502 1502 1503 1504 1506 1508 1510 1511 1513 1515 1518 1519 1521 1522 1524 1525 1527 1530 1532 1534 1536 1538 1541 1543 1545 1547 1548 1550 1552
1509 1509 1507 1506 1504 1502 1501 1500 1500 1499 1499 1499 1500 1501 1501 1502 1501 1502 1504 1505 1507 1509 1511 1513 1515 1517 1519 1520 1521 1523 1525 1527 1529 1532 1534 1536 1538 1541 1543 1545 1547 1548 1550
1509 1507 1506 1505 1503 1502 1501 1500 1499 1499 1498 1498 1499 1500 1500 1499 1500 1501 1501 1503 1504 1506 1508 1510 1512 1515 1516 1518 1519 1520 1523 1525 1527 1529 1532 1534 1536 1538 1540 1542 1544 1546 1548
1509 1507 1505 1504 1503 1502 1501 1500 1499 1498 1498 1498 1498 1498 1499 1499 1500 1500 1500 1501 1502 1503 1505 1507 1509 1511 1513 1515 1516 1517 1520 1522 1524 1527 1529 1531 1533 1535 1537 1540 1542 1544 1546
1508 1506 1505 1504 1503 1502 1500 1499 1498 1497 1497 1497 1497 1497 1497 1498 1498 1499 1499 1500 1500 1501 1502 1504 1506 1508 1509 1511 1513 1514 1517 1519 1521 1523 1526 1528 1530 1532 1534 1537 1539 1541 1543
1509 1507 1505 1504 1502 1501 1500 1499 1498 1497 1496 1496 1496 1496 1496 1497 1497 1498 1498 1499 1499 1500 1500 1501 1503 1504 1506 1508 1509 1511 1513 1516 1518 1520 1522 1524 1526 1529 1531 1533 1535 1537 1539
1509 1507 1505 1503 1502 1501 1499 1498 1498 1497 1496 1496 1495 1495 1495 1496 1496 1496 1497 1498 1498 1498 1499 1499 1500 1501 1503 1504 1506 1508 1510 1512 1514 1516 1518 1520 1522 1524 1527 1529 1531 1533 1535
1509 1506 1504 1503 1501 1500 1499 1498 1497 1497 1496 1495 1495 1494 1494 1494 1495 1495 1496 1496 1496 1497 1497 1498 1498 1499 1500 1501 1502 1504 1506 1507 1509 1511 1513 1516 1518 1520 1522 1525 1527 1529 1531
1507 1506 1504 1503 1501 1500 1498 1497 1497 1496 1495 1495 1494 1494 1493 1493 1493 1493 1494 1494 1496 1495 1495 1496 1496 1496 1497 1498 1498 1500 1502 1503 1504 1506 1509 1511 1513 1515 1518 1520 1522 1525 1527
1506 1505 1504 1503 1501 1500 1498 1497 1497 1495 1494 1494 1492 1492 1492 1492 1492 1492 1492 1492 1493 1494 1494 1494 1494 1494 1494 1495 1495 1496 1497 1498 1500 1502 1504 1506 1508 1510 1512 1514 1517 1519 1521
1505 1504 1503 1502 1501 1500 1499 1497 1496 1495 1494 1494 1493 1492 1491 1490 1490 1490 1490 1490 1491 1491 1491 1492 1492 1492 1492 1492 1492 1492 1493 1494 1495 1497 1498 1500 1502 1504 1506 1509 1511 1513 1515
1505 1504 1503 1502 1501 1499 1498 1497 1495 1494 1493 1492 1492 1491 1490 1489 1489 1489 1488 1489 1489 1489 1489 1489 1489 1489 1489 1488 1488 1488 1489 1489 1490 1491 1493 1495 1496 1498 1500 1502 1504 1507 1509
1504 1503 1502 1501 1500 1498 1497 1496 1495 1494 1493 1491 1490 1490 1489 1488 1488 1487 1487 1487 1486 1486 1486 1486 1485 1485 1485 1485 1484 1484 1485 1485 1486 1486 1487 1489 1490 1492 1494 1496 1497 1499 1502
1503 1502 1501 1500 1499 1498 1497 1496 1494 1493 1492 1491 1490 1489 1488 1487 1486 1486 1485 1485 1484 1484 1483 1483 1482 1482 1482 1481 1481 1481 1481 1481 1481 1482 1482 1483 1484 1485 1487 1488 1490 1492 1494
1501 1501 1500 1499 1498 1497 1496 1494 1494 1492 1492 1491 1489 1488 1486 1485 1484 1483 1483 1482 1482 1481 1481 1480 1479 1479 1478 1478 1478 1477 1477 1477 1477 1477 1478 1478 1479 1479 1480 1481 1483 1484 1486
1500 1499 1498 1498 1496 1495 1494 1492 1491 1491 1490 1489 1488 1487 1485 1483 1482 1481 1480 1479 1479 1478 1478 1478 1477 1476 1475 1475 1474 1474 1473 1473 1473 1474 1474 1474 1474 1474 1474 1475 1476 1477 1479
1498 1497 1496 1495 1494 1494 1492 1491 1489 1489 1488 1488 1487 1485 1484 1482 1480 1480 1478 1477 1476 1475 1475 1474 1474 1473 1472 1472 1471 1471 1470 1470 1469 1469 1469 1468 1469 1468 1469 1469 1469 1470 1472
1495 1494 1493 1492 1491 1490 1489 1488 1487 1486 1486 1485 1484 1483 1482 1481 1479 1478 1476 1475 1474 1473 1472 1471 1471 1470 1469 1468 1468 1467 1466 1465 1465 1464 1464 1464 1464 1464 1464 1463 1463 1464 1465
1492 1491 1490 1489 1488 1487 1486 1485 1484 1484 1483 1483 1482 1480 1479 1478 1477 1475 1474 1473 1472 1471 1469 1468 1467 1466 1465 1464 1464 1463 1463 1462 1461 1460 1460 1460 1459 1458 1458 1457 1457 1457 1458
1488 1487 1486 1485 1484 1483 1482 1481 1481 1480 1481 1480 1479 1478 1476 1475 1474 1473 1472 1471 1470 1469 1467 1466 1464 1463 1462 1461 1460 1460 1459 1459 1457 1456 1456 1456 1454 1454 1453 1452 1452 1452 1452